Satellite-Ground Cal/Val Region Overpasses Predictions

Prediction of Satellite NPP Overpassing Cal/Val Region: PacNW

Region Location: (Latitude: 10.00, Longitude: 139.50) to (Latitude: 22.70, Longitude: 165.60).

Table of predicted overpasses for the next 14.0 days since TLE Epoch: 5/25/2018
Interval Starting Time Starting Location Ending Time Ending Location
1 05/25/2018 15:49:10 ( 22.66, 147.62) 05/25/2018 15:52:45 ( 10.04, 144.62)
2 05/26/2018 02:58:14 ( 10.03, 155.15) 05/26/2018 03:01:49 ( 22.65, 152.14)
3 05/26/2018 15:30:07 ( 22.70, 152.39) 05/26/2018 15:33:43 ( 10.02, 149.37)
4 05/27/2018 02:39:13 ( 10.05, 159.90) 05/27/2018 02:42:48 ( 22.68, 156.89)
5 05/27/2018 15:11:06 ( 22.67, 157.14) 05/27/2018 15:14:41 ( 10.05, 154.14)
6 05/28/2018 02:20:11 ( 10.02, 164.67) 05/28/2018 02:23:47 ( 22.70, 161.65)
7 05/28/2018 14:52:04 ( 22.65, 161.90) 05/28/2018 14:55:39 ( 10.03, 158.89)
8 05/29/2018 03:42:39 ( 10.05, 144.04) 05/29/2018 03:46:14 ( 22.67, 141.04)
9 05/29/2018 14:34:16 ( 18.35, 165.60) 05/29/2018 14:36:38 ( 10.01, 163.65)
10 05/29/2018 16:14:32 ( 22.68, 141.29) 05/29/2018 16:16:37 ( 15.35, 139.51)
11 05/30/2018 03:23:37 ( 10.01, 148.81) 05/30/2018 03:27:13 ( 22.69, 145.79)
12 05/30/2018 15:55:30 ( 22.66, 146.04) 05/30/2018 15:59:05 ( 10.03, 143.04)
13 05/31/2018 03:04:35 ( 10.04, 153.56) 05/31/2018 03:08:10 ( 22.66, 150.56)
14 05/31/2018 15:36:28 ( 22.69, 150.81) 05/31/2018 15:40:04 ( 10.01, 147.79)
15 06/01/2018 02:45:33 ( 10.00, 158.33) 06/01/2018 02:49:09 ( 22.68, 155.31)
16 06/01/2018 15:17:26 ( 22.66, 155.56) 06/01/2018 15:21:01 ( 10.04, 152.56)
17 06/02/2018 02:26:31 ( 10.03, 163.08) 06/02/2018 02:30:06 ( 22.65, 160.08)
18 06/02/2018 14:58:24 ( 22.70, 160.33) 06/02/2018 15:02:00 ( 10.02, 157.31)
19 06/03/2018 02:10:12 ( 19.57, 165.60) 06/03/2018 02:11:05 ( 22.68, 164.83)
20 06/03/2018 03:48:59 ( 10.00, 142.47) 06/03/2018 03:52:31 ( 22.45, 139.51)
21 06/03/2018 14:39:22 ( 22.67, 165.08) 06/03/2018 14:42:57 ( 10.05, 162.08)
22 06/03/2018 16:20:52 ( 22.67, 139.70) 06/03/2018 16:21:05 ( 21.91, 139.51)
23 06/04/2018 03:29:57 ( 10.03, 147.22) 06/04/2018 03:33:32 ( 22.65, 144.22)
24 06/04/2018 16:01:51 ( 22.64, 144.46) 06/04/2018 16:05:26 ( 10.02, 141.45)
25 06/05/2018 03:10:56 ( 10.05, 151.98) 06/05/2018 03:14:31 ( 22.67, 148.97)
26 06/05/2018 15:42:49 ( 22.68, 149.22) 06/05/2018 15:46:24 ( 10.05, 146.22)
27 06/06/2018 02:51:53 ( 10.02, 156.74) 06/06/2018 02:55:29 ( 22.70, 153.73)
28 06/06/2018 15:23:47 ( 22.65, 153.97) 06/06/2018 15:27:22 ( 10.03, 150.97)
29 06/07/2018 02:32:52 ( 10.05, 161.50) 06/07/2018 02:36:27 ( 22.67, 158.49)
30 06/07/2018 15:04:45 ( 22.68, 158.74) 06/07/2018 15:08:21 ( 10.00, 155.72)
31 06/08/2018 02:14:38 ( 12.89, 165.60) 06/08/2018 02:17:25 ( 22.69, 163.24)


NCC Satellite Cal/Val Overpasses Prediction Service
